Regional Weather Roundup
Issued by NWS

Home | Current Version | Previous Version | Text Only | Print | Product List | Glossary Off
Versions: 1 2 3 4 5 6 7 8 9 10 11 12 13 14 15 16 17 18 19 20 21 22 23 24 25 26 27 28 29 30 31 32 33 34 35 36 37 38 39 40 41 42 43 44 45 46 47 48 49 50

000
ASUS43 KDTX 231810
RWRMI
MICHIGAN HOURLY REGIONAL WEATHER ROUNDUP
NATIONAL WEATHER SERVICE DETROIT/PONTIAC MI
200 PM EDT THU MAR 23 2017

NOTE: "FAIR" INDICATES FEW OR NO CLOUDS BELOW 12,000 FEET WITH NO
SIGNIFICANT WEATHER AND/OR OBSTRUCTION TO VISIBILITY.

MIZ047>049-052>055-059>063-066>070-074>076-081>083-231900-
SOUTHEAST LOWER MICHIGAN

CITY           SKY/WX    TMP DP  RH WIND       PRES   REMARKS
ADRIAN         SUNNY     40  14  34 SE10      30.44F WCI  33
6HR MIN TEMP:  22; 6HR MAX TEMP:  40;

ALMA           PTSUNNY   42  13  31 S10G18    30.41F
6HR MIN TEMP:  24; 6HR MAX TEMP:  42;

ANN ARBOR      SUNNY     39  10  30 E13       30.45F WCI  31
BAD AXE        SUNNY     38  11  32 S15G21    30.45F WCI  30
6HR MIN TEMP:  20; 6HR MAX TEMP:  38;

CARO           SUNNY     42  10  27 S13G18    30.44F
DETROIT CITY   SUNNY     39  15  37 SE9       30.49F WCI  33
6HR MIN TEMP:  22; 6HR MAX TEMP:  39;

DETROIT        MOSUNNY   39   8  27 SE9       30.48F WCI  33
6HR MIN TEMP:  25; 6HR MAX TEMP:  40;

GROSSE ILE     SUNNY     38   8  29 SE8       30.48F WCI  32
6HR MIN TEMP:  25; 6HR MAX TEMP:  38;

HILLSDALE      SUNNY     39   9  28 SE9G16    30.40F WCI  33
HOWELL         SUNNY     41  10  27 S13G20    30.43F
6HR MIN TEMP:  20; 6HR MAX TEMP:  41;


CITY           SKY/WX    TMP DP  RH WIND       PRES   REMARKS
JACKSON        SUNNY     42  10  27 SE15      30.41F
6HR MIN TEMP:  21; 6HR MAX TEMP:  42;

LAMBERTVILLE   SUNNY     40  18  40 E6        30.46F
6HR MIN TEMP:  22; 6HR MAX TEMP:  40;

LANSING        SUNNY     44  11  26 S13       30.42F
6HR MIN TEMP:  23; 6HR MAX TEMP:  44;

LAPEER         FAIR      39  11  31 SE10G20   30.45F WCI  33
6HR MIN TEMP:  18; 6HR MAX TEMP:  40;

MASON          SUNNY     40  20  44 SE10G21   30.42F WCI  34
MONROE         SUNNY     38  18  44 E9        30.47F WCI  31
MT. CLEMENS    PTSUNNY   36  15  41 SE14      30.48F WCI  27
6HR MIN TEMP:  22; 6HR MAX TEMP:  37;

PONTIAC        PTSUNNY   39  10  30 SE14G23   30.43F WCI  31
6HR MIN TEMP:  22; 6HR MAX TEMP:  39;

PORT HOPE        N/A     36  20  52 S9G20     30.45F WCI  29
6HR MIN TEMP:  22; 6HR MAX TEMP:  37;

PORT HURON     SUNNY     39  12  33 SE14      30.49F WCI  31
TRI CITIES     MOSUNNY   41  12  30 S12       30.44F
6HR MIN TEMP:  24; 6HR MAX TEMP:  41;

MIDLAND        PTSUNNY   41  12  30 S10       30.42F
6HR MIN TEMP:  25; 6HR MAX TEMP:  41;

TROY           SUNNY     40  10  28 S8        30.48F WCI  35
SAGINAW HB     SUNNY     41   3  20 SE7       30.43F
$$
MIZ043>046-050>051-056>058-064>065-071>073-077>080-231900-
SOUTHWEST LOWER MICHIGAN

CITY           SKY/WX    TMP DP  RH WIND       PRES   REMARKS
BATTLE CREEK   MOSUNNY   42   7  23 SE14G22   30.38F
6HR MIN TEMP:  24; 6HR MAX TEMP:  43;

BENTON HARBOR  CLOUDY    41  10  28 SE14G23   30.37F
6HR MIN TEMP:  27; 6HR MAX TEMP:  41;

BIG RAPIDS     CLOUDY    36   8  30 SE12G17   30.36F WCI  28
6HR MIN TEMP:  20; 6HR MAX TEMP:  36;

COLDWATER      SUNNY     42   9  25 SE12G20   30.39F
6HR MIN TEMP:  24; 6HR MAX TEMP:  43;

FREMONT        CLOUDY    37  10  32 S9        30.36F WCI  31
HOLLAND        CLOUDY    44  10  25 SE14      30.37F
6HR MIN TEMP:  25; 6HR MAX TEMP:  44;

GRAND RAPIDS   CLOUDY    40  13  33 SE10      30.37F WCI  33
6HR MIN TEMP:  24; 6HR MAX TEMP:  42;

IONIA          FAIR      40  14  35 SE15      30.39F WCI  32
6HR MIN TEMP:  24; 6HR MAX TEMP:  40;

KALAMAZOO      CLOUDY    42   5  21 S10       30.39F
6HR MIN TEMP:  25; 6HR MAX TEMP:  42;

LUDINGTON      CLOUDY    37  16  42 S13G18    30.34F WCI  29
6HR MIN TEMP:  28; 6HR MAX TEMP:  37;

MARSHALL       MOSUNNY   43   9  24 SE10      30.40F
6HR MIN TEMP:  22; 6HR MAX TEMP:  43;

MOUNT PLEASANT CLOUDY    39  15  38 SE9       30.40F WCI  33
6HR MIN TEMP:  22; 6HR MAX TEMP:  40;

MUSKEGON       CLOUDY    41  13  31 SE15G23   30.36F
6HR MIN TEMP:  25; 6HR MAX TEMP:  41;

SOUTH HAVEN    CLOUDY    40   6  24 S12       30.37F WCI  33
$$
MIZ016>042-231900-
NORTHERN LOWER MICHIGAN

CITY           SKY/WX    TMP DP  RH WIND       PRES   REMARKS
ALPENA         CLOUDY    41  11  29 S15G22    30.40F
6HR MIN TEMP:  14; 6HR MAX TEMP:  41;

BEAVER ISLAND  CLOUDY    35  19  51 S10       30.32F WCI  27
6HR MIN TEMP:  21; 6HR MAX TEMP:  36;

BELLAIRE       CLOUDY    39   6  25 S12G18    30.33F WCI  32
6HR MIN TEMP:  20; 6HR MAX TEMP:  39;

CADILLAC       CLOUDY    38  11  32 SE13      30.31F WCI  30
CHARLEVOIX     CLOUDY    37  13  38 SE8       30.35F WCI  31
6HR MIN TEMP:  22; 6HR MAX TEMP:  37;

FRANKFORT      CLOUDY    40   7  25 S10G23    30.31F WCI  34
GAYLORD        CLOUDY    38   5  25 S15       30.32F WCI  29
6HR MIN TEMP:  21; 6HR MAX TEMP:  38;

GRAYLING       CLOUDY    37   9  30 S13G20    30.35F WCI  29
HARBOR SPRINGS CLOUDY    38  11  32 S5        30.33F WCI  34
HOUGHTON LAKE  CLOUDY    37  11  34 SE12      30.36F WCI  29
6HR MIN TEMP:  23; 6HR MAX TEMP:  37;

MANISTEE       PTSUNNY   39   8  27 SE9       30.32F WCI  33
OSCODA         CLOUDY    37  13  37 S15G22    30.44F WCI  28
6HR MIN TEMP:  16; 6HR MAX TEMP:  37;

PELLSTON       CLOUDY    38   9  30 S13G20    30.34F WCI  30
6HR MIN TEMP:  18; 6HR MAX TEMP:  39;

ROGERS CITY    CLOUDY    40  11  30 S14G21    30.38F WCI  32
TRAVERSE CITY  CLOUDY    41   8  25 S8        30.31F
6HR MIN TEMP:  23; 6HR MAX TEMP:  41;

$$
MIZ007>008-015-231900-
EASTERN UPPER MICHIGAN

CITY           SKY/WX    TMP DP  RH WIND       PRES   REMARKS
KINROSS        CLOUDY    36  14  40 S13G18    30.33F WCI  27
6HR MIN TEMP:  16; 6HR MAX TEMP:  37;

MACKINAC ISLAN CLOUDY    36  15  42 S6        30.34F WCI  31
6HR MIN TEMP:  22; 6HR MAX TEMP:  36;

NEWBERRY       CLOUDY    33  19  58 S20G25    30.30F WCI  21
6HR MIN TEMP:  19; 6HR MAX TEMP:  33;

S. S. MARIE    CLOUDY    35  18  49 SE13      30.33F WCI  26
6HR MIN TEMP:  15; 6HR MAX TEMP:  35;

MUNISING         N/A     36  23  59 S15G25    30.22F WCI  27
6HR MIN TEMP:  23; 6HR MAX TEMP:  36;

$$
MIZ004>006-011>014-085-231900-
CENTRAL UPPER MICHIGAN

CITY           SKY/WX    TMP DP  RH WIND       PRES   REMARKS
MANISTIQUE     CLOUDY    32  28  86 S13G18    30.29F WCI  22
ESCANABA       CLOUDY    35  29  78 S10       30.27F WCI  27
6HR MIN TEMP:  24; 6HR MAX TEMP:  35;

MENOMINEE        N/A    N/A N/A N/A MISG        N/A
SAWYER-GWINN   CLOUDY    30  23  74 S20       30.20F WCI  18
$$
MIZ001>003-009>011-084-231900-
WESTERN UPPER MICHIGAN

CITY           SKY/WX    TMP DP  RH WIND       PRES   REMARKS
IRON MOUNTAIN  CLOUDY    32  21  64 S10       30.20F WCI  24
6HR MIN TEMP:  25; 6HR MAX TEMP:  32; 6HR PCP: TRACE;

HOUGHTON       CLOUDY    33  24  69 S15       30.10F WCI  23
6HR MIN TEMP:  27; 6HR MAX TEMP:  37;

COPPER HARBOR    N/A     33  23  66 SW13G24   30.12F WCI  24
6HR MIN TEMP:  30; 6HR MAX TEMP:  33;

IRONWOOD       CLOUDY    35  18  49 S15G24    30.04F WCI  25
6HR MIN TEMP:  27; 6HR MAX TEMP:  35; 6HR PCP: TRACE;

$$

ABBREVIATIONS USED IN REMARKS
   TC - TEMPERATURE IN CELSIUS
  WCI - WIND CHILL INDEX
   HX - HEAT INDEX
  VSB - VISIBILITY




USA.gov is the U.S. government's official web portal to all federal, state and local government web resources and services.